Weather History for Moses Lake, WA

Change the Weather History Date:

Thursday, September 6, 2012

  Actual Average Record
Temperature  
Mean Temperature 67 °F 66 °F  
Max Temperature 84 °F 82 °F 93 °F (1998)
Min Temperature 50 °F 50 °F 34 °F (1985)
Degree Days  
Heating Degree Days 0 2  
Month to date heating degree days 1 10  
Since 1 July heating degree days 13 30  
Cooling Degree Days 2 3  
Month to date cooling degree days 10 20  
Year to date cooling degree days 691 590  
Growing Degree Days 17 (Base 50)    
Moisture  
Dew Point 40 °F    
Average Humidity 43    
Maximum Humidity 68    
Minimum Humidity 17    
Precipitation  
Precipitation 0.00 in 0.01 in 0.27 in (2013)
Month to date precipitation 0.00 0.07  
Year to date precipitation 5.58 5.50  
Sea Level Pressure  
Sea Level Pressure 30.05 in    
Wind  
Wind Speed 6 mph (NNE)    
Max Wind Speed 15 mph    
Max Gust Speed 21 mph    
Visibility 10 miles    
Events      
T = Trace of Precipitation, MM = Missing Value Source: NWS Daily Summary

Daily Weather History Graph

Daily Weather History Graph

Search for Another Location

Airport:

Trip Planner

Search our weather history database for the weather conditions in past years. The results will help you decide how hot, cold, wet, or windy it might be!

Date:

Astronomy

Sep. 06, 2012 Rise Set
Actual Time 6:23 AM PDT 7:26 PM PDT
Civil Twilight 5:52 AM PDT 7:57 PM PDT
Nautical Twilight 5:14 AM PDT 8:34 PM PDT
Astronomical Twilight 4:35 AM PDT 9:14 PM PDT
Moon 10:12 PM PDT (9/6) 12:55 PM PDT (9/6)
Length of Visible Light 14h 04m
Length of Day
13h 02m
Waning Gibbous, 66% of the Moon is Illuminated
Sep 6
Waning Gibbous
Sep 8
Last Quarter
Sep 15
New
Sep 22
First Quarter
Sep 29
Full

Hourly Weather History & Observations

Time (PDT) Temp. Dew Point Humidity Pressure Visibility Wind Dir Wind Speed Gust Speed Precip Events Conditions
12:52 AM 63.0 °F 42.1 °F 46% 29.95 in 10.0 mi NNE 10.4 mph - N/A   Clear
1:52 AM 59.0 °F 42.1 °F 53% 29.97 in 10.0 mi NNE 6.9 mph - N/A   Clear
2:52 AM 57.9 °F 41.0 °F 53% 29.99 in 10.0 mi North 4.6 mph - N/A   Clear
3:52 AM 57.0 °F 41.0 °F 55% 30.01 in 10.0 mi NNE 3.5 mph - N/A   Clear
4:52 AM 55.9 °F 42.1 °F 60% 30.02 in 10.0 mi ENE 5.8 mph - N/A   Clear
5:52 AM 53.1 °F 41.0 °F 64% 30.04 in 10.0 mi NE 6.9 mph - N/A   Clear
6:52 AM 52.0 °F 41.0 °F 66% 30.06 in 10.0 mi NNE 4.6 mph - N/A   Clear
7:52 AM 59.0 °F 42.1 °F 53% 30.08 in 10.0 mi NNE 5.8 mph - N/A   Clear
8:52 AM 64.9 °F 43.0 °F 45% 30.09 in 10.0 mi NNE 8.1 mph - N/A   Clear
9:52 AM 72.0 °F 41.0 °F 33% 30.09 in 10.0 mi NNE 10.4 mph - N/A   Clear
10:52 AM 75.0 °F 39.9 °F 28% 30.09 in 10.0 mi NE 6.9 mph - N/A   Clear
11:52 AM 77.0 °F 39.9 °F 26% 30.08 in 10.0 mi North 6.9 mph - N/A   Clear
12:52 PM 78.1 °F 39.0 °F 25% 30.07 in 10.0 mi NNW 11.5 mph 16.1 mph N/A   Clear
1:52 PM 81.0 °F 39.0 °F 22% 30.06 in 10.0 mi NNE 11.5 mph 17.3 mph N/A   Clear
2:52 PM 82.0 °F 39.0 °F 22% 30.05 in 10.0 mi North 4.6 mph - N/A   Clear
3:52 PM 82.9 °F 37.0 °F 19% 30.04 in 10.0 mi North 6.9 mph - N/A   Clear
4:52 PM 82.9 °F 36.0 °F 19% 30.03 in 10.0 mi Variable 4.6 mph - N/A   Clear
5:52 PM 82.9 °F 34.0 °F 17% 30.03 in 10.0 mi NNE 4.6 mph - N/A   Clear
6:52 PM 80.1 °F 35.1 °F 20% 30.03 in 10.0 mi North 4.6 mph - N/A   Clear
7:52 PM 75.9 °F 37.9 °F 25% 30.04 in 10.0 mi Calm Calm - N/A   Clear
8:52 PM 68.0 °F 39.0 °F 35% 30.06 in 10.0 mi Calm Calm - N/A   Clear
9:52 PM 68.0 °F 43.0 °F 40% 30.06 in 10.0 mi East 3.5 mph - N/A   Clear
10:52 PM 61.0 °F 42.1 °F 50% 30.09 in 10.0 mi Calm Calm - N/A   Clear
11:52 PM 57.9 °F 39.9 °F 51% 30.11 in 10.0 mi NNE 6.9 mph - N/A   Clear